Location: Asheville, NC
(35.6000°N, 82.5500°W)
Time: 11:43:19
(UTC-04:00)

HO-68 - Pass Details

Date: 05 January 2018
Orbit: 1192 x 1205 km, 100.1° (Epoch: 22 June)

Event Time Altitude Azimuth Distance (km) Brightness Sun altitude
Rises 20:07:29 0° 203° (SSW) 4,090 ? -31.0°
Reaches altitude 10° 20:10:50 10° 219° (SW) 3,128 ? -31.7°
Maximum altitude 20:16:03 22° 266° (W) 2,376 ? -32.7°
Drops below altitude 10° 20:21:18 10° 314° (NW) 3,134 ? -33.8°
Sets 20:24:42 0° 329° (NNW) 4,101 ? -34.5°
